Regional Weather Roundup
Issued by NWS State College, PA

Home | Current Version | Previous Version | Text Only | Print | Product List | Glossary On
Versions: 1 2 3 4 5 6 7 8 9 10 11 12 13 14 15 16 17 18 19 20 21 22 23 24 25 26 27 28 29 30 31 32 33 34 35 36 37 38 39 40 41 42 43 44 45 46 47 48 49 50
000
ASUS41 KCTP 031910
RWRCTP

REGIONAL WEATHER ROUNDUP
NATIONAL WEATHER SERVICE STATE COLLEGE PA
300 PM EDT FRI JUL 03 2015

Note: "fair" indicates few or no clouds below 12,000 feet with no
significant weather and/or obstructions to visibility.

* = STATION THAT DOES NOT REPORT PRECIPITATION /E.G. RAIN...SNOW...ETC/
    THUNDER OR FOG.

PAZ002>004-007>009-013>016-020>023-029>032-032000-
WESTERN PENNSYLVANIA

CITY           SKY/WX    TMP DP  RH WIND       PRES   REMARKS
ERIE           MOSUNNY   72  49  44 NE13      29.95F
MEADVILLE      MOSUNNY   73  53  49 S5        29.97F
FRANKLIN*      MOSUNNY   73  55  53 S8        29.98F
NEW CASTLE     FAIR      77  56  48 CALM      29.96S
BEAVER COUNTY  SUNNY     77  57  50 S5        29.95F
BUTLER*        PTSUNNY   77  57  50 SE5       29.97S
PITTSBURGH INT CLOUDY    79  56  45 SE6       29.94S
PITTSBURGH     PTSUNNY   77  52  41 VRB6      29.93F
INDIANA*       SUNNY     77  61  57 MISG      30.00S
LATROBE        NOT AVBL
WASHINGTON CO* NOT AVBL
$$

PAZ004>006-010>012-017>019-024>028-033>037-041-042-045-046-049>053-032000-
CENTRAL PENNSYLVANIA

CITY           SKY/WX    TMP DP  RH WIND       PRES   REMARKS
BRADFORD       MOSUNNY   74  52  46 S8        29.99F
DUBOIS         MOSUNNY   77  57  50 SE9       29.98S
CLEARFIELD     MOSUNNY   75  58  55 S9        29.99F
JOHNSTOWN      PTSUNNY   71  58  63 SE9       30.00F
ALTOONA        PTSUNNY   74  59  59 S7G18     29.99F
STATE COLLEGE  PTSUNNY   75  59  57 CALM      29.99F
WILLIAMSPORT   MOSUNNY   78  58  49 MISG      29.96F
SELINSGROVE    PTSUNNY   78  62  57 VRB3      29.98S
FT INDIANTOWN  PTSUNNY   78  61  55 S7        29.97F
CAPITAL CITY   PTSUNNY   77  62  59 E9        29.96F
HARRISBURG     PTSUNNY   80  63  55 SE6       29.96F
YORK           PTSUNNY   78  63  59 S7        29.97F
$$

PAZ038>040-043-044-047-048-054-055-060>062-067>071-032000-
EASTERN PENNSYLVANIA

CITY           SKY/WX    TMP DP  RH WIND       PRES   REMARKS
SCRANTON       SUNNY     79  55  43 NW7       29.99F
MOUNT POCONO   PTSUNNY   73  53  49 S6        30.02F
ALLENTOWN      MOSUNNY   79  56  45 W5        29.98F
QUAKERTOWN*    PTCLDY    81  59  47 SE5       29.99F
READING        PTSUNNY   80  60  50 S5        29.97S
LANCASTER      PTSUNNY   77  61  57 S7        29.97F
COATESVILLE    MOCLDY    75  64  69 SE6       30.00F
POTTSTOWN      PTSUNNY   79  61  53 SE5       29.99F
BLUE BELL      MOSUNNY   79  61  53 CALM      29.98S
DOYLESTOWN     MOSUNNY   78  55  44 CALM      29.98F
WILLOW GROVE   NOT AVBL
NORTH PHILA    MOSUNNY   82  57  42 VRB3      29.99S
PHILADELPHIA   PTSUNNY   81  59  47 S6        29.97F
$$


USA.gov is the U.S. government's official web portal to all federal, state and local government web resources and services.